SAS59Z ESGG-ESSA

Flight info

Callsign SAS59Z
Flight time 0h 39m
Altitude 29000
Route LABAN N873 ARS T317 ELTOK
Aircraft A320/M-SDE3FGHIJ1RWXYZ/ALB1

Departure

Time 2026-05-07 21:32
Airport Göteborg Landvetter Airport (ESGG)

Arrival

Time 2026-05-07 22:12
Airport Stockholm-Arlanda Airport (ESSA)
Time Latitude Longitude Altitude Speed Heading
2026-05-07 21:18 57.66849 12.29374 516 ft 0 kts 116°
2026-05-07 21:22 57.66850 12.29369 516 ft 3 kts 116°
2026-05-07 21:23 57.66859 12.29334 516 ft 3 kts 114°
2026-05-07 21:23 57.66861 12.29297 516 ft 4 kts 112°
2026-05-07 21:23 57.66872 12.29266 516 ft 4 kts 172°
2026-05-07 21:23 57.66894 12.29275 516 ft 4 kts 206°
2026-05-07 21:24 57.66903 12.29283 516 ft 0 kts 206°
2026-05-07 21:27 57.66880 12.29261 516 ft 7 kts 207°
2026-05-07 21:27 57.66816 12.29203 516 ft 13 kts 205°
2026-05-07 21:28 57.66779 12.29085 516 ft 12 kts 293°
2026-05-07 21:28 57.66818 12.28931 516 ft 14 kts 297°
2026-05-07 21:28 57.66782 12.28780 513 ft 16 kts 207°
2026-05-07 21:28 57.66679 12.28685 512 ft 17 kts 207°
2026-05-07 21:29 57.66567 12.28583 512 ft 19 kts 206°
2026-05-07 21:29 57.66446 12.28474 511 ft 20 kts 207°
2026-05-07 21:29 57.66321 12.28359 511 ft 21 kts 206°
2026-05-07 21:29 57.66186 12.28236 510 ft 22 kts 206°
2026-05-07 21:30 57.66040 12.28105 509 ft 25 kts 205°
2026-05-07 21:30 57.65893 12.27972 507 ft 23 kts 205°
2026-05-07 21:30 57.65786 12.27873 506 ft 15 kts 206°
2026-05-07 21:30 57.65711 12.27761 505 ft 14 kts 265°
2026-05-07 21:31 57.65784 12.27664 505 ft 15 kts 355°
2026-05-07 21:31 57.65883 12.27647 506 ft 12 kts 348°
2026-05-07 21:31 57.65938 12.27667 506 ft 9 kts 26°
2026-05-07 21:31 57.66009 12.27728 507 ft 37 kts 25°
2026-05-07 21:32 57.66463 12.28140 511 ft 104 kts 26°
2026-05-07 21:32 57.67268 12.28861 523 ft 150 kts 23°
2026-05-07 21:32 57.68237 12.29709 1004 ft 151 kts 25°
2026-05-07 21:32 57.69220 12.30602 1366 ft 167 kts 26°
2026-05-07 21:33 57.70296 12.31686 1676 ft 190 kts 37°
2026-05-07 21:33 57.71311 12.33478 2038 ft 213 kts 47°
2026-05-07 21:33 57.72334 12.35685 2439 ft 237 kts 50°
2026-05-07 21:33 57.73439 12.38158 3009 ft 256 kts 50°
2026-05-07 21:34 57.74613 12.40776 3921 ft 262 kts 50°
2026-05-07 21:34 57.75805 12.43395 4862 ft 267 kts 50°
2026-05-07 21:34 57.77016 12.46012 5752 ft 272 kts 50°
2026-05-07 21:34 57.78293 12.48739 6424 ft 288 kts 50°
2026-05-07 21:35 57.79678 12.51644 6877 ft 309 kts 49°
2026-05-07 21:35 57.81176 12.54735 7443 ft 323 kts 48°
2026-05-07 21:35 57.82699 12.57855 8028 ft 334 kts 47°
2026-05-07 21:35 57.84315 12.61161 8662 ft 344 kts 47°
2026-05-07 21:36 57.85930 12.64468 9314 ft 352 kts 47°
2026-05-07 21:36 57.87595 12.67895 9997 ft 359 kts 47°
2026-05-07 21:36 57.89293 12.71398 10631 ft 365 kts 47°
2026-05-07 21:36 57.91006 12.74949 11282 ft 369 kts 47°
2026-05-07 21:37 57.92741 12.78555 11964 ft 373 kts 47°
2026-05-07 21:37 57.94491 12.82196 12662 ft 377 kts 46°
2026-05-07 21:37 57.96255 12.85864 13372 ft 379 kts 46°
2026-05-07 21:37 57.98033 12.89561 14093 ft 382 kts 46°
2026-05-07 21:38 57.99815 12.93285 14754 ft 383 kts 46°
2026-05-07 21:38 58.01601 12.97030 15427 ft 384 kts 46°
2026-05-07 21:38 58.03388 13.00789 16119 ft 385 kts 46°
2026-05-07 21:38 58.05173 13.04552 16827 ft 385 kts 46°
2026-05-07 21:39 58.06961 13.08320 17550 ft 386 kts 46°
2026-05-07 21:39 58.08752 13.12097 18295 ft 386 kts 46°
2026-05-07 21:39 58.10546 13.15876 18968 ft 387 kts 46°
2026-05-07 21:39 58.12341 13.19665 19631 ft 387 kts 46°
2026-05-07 21:40 58.14138 13.23471 20309 ft 388 kts 46°
2026-05-07 21:40 58.15932 13.27278 21001 ft 387 kts 46°
2026-05-07 21:40 58.17718 13.31085 21715 ft 386 kts 46°
2026-05-07 21:40 58.19473 13.34909 22441 ft 384 kts 47°
2026-05-07 21:41 58.21204 13.38744 23181 ft 381 kts 47°
2026-05-07 21:41 58.22911 13.42563 23899 ft 379 kts 47°
2026-05-07 21:41 58.24606 13.46368 24533 ft 376 kts 47°
2026-05-07 21:41 58.26288 13.50136 25163 ft 372 kts 47°
2026-05-07 21:42 58.27957 13.53866 25806 ft 368 kts 47°
2026-05-07 21:42 58.29607 13.57552 26458 ft 364 kts 47°
2026-05-07 21:42 58.31242 13.61203 27074 ft 362 kts 46°
2026-05-07 21:42 58.32870 13.64843 27577 ft 361 kts 46°
2026-05-07 21:43 58.34497 13.68484 28087 ft 361 kts 46°
2026-05-07 21:43 58.36116 13.72120 28598 ft 360 kts 46°
2026-05-07 21:43 58.37737 13.75763 29037 ft 362 kts 46°
2026-05-07 21:43 58.39386 13.79471 29163 ft 373 kts 46°
2026-05-07 21:44 58.41092 13.83309 29182 ft 386 kts 46°
2026-05-07 21:44 58.42860 13.87294 29182 ft 400 kts 47°
2026-05-07 21:44 58.44689 13.91421 29180 ft 414 kts 47°
2026-05-07 21:44 58.46575 13.95687 29180 ft 426 kts 47°
2026-05-07 21:45 58.48509 14.00085 29181 ft 438 kts 47°
2026-05-07 21:45 58.50488 14.04599 29179 ft 449 kts 47°
2026-05-07 21:45 58.54592 14.13975 29194 ft 469 kts 47°
2026-05-07 21:46 58.58845 14.23749 29174 ft 484 kts 47°
2026-05-07 21:46 58.63198 14.33784 29168 ft 493 kts 47°
2026-05-07 21:47 58.67597 14.43954 29169 ft 496 kts 47°
2026-05-07 21:47 58.72000 14.54168 29173 ft 496 kts 47°
2026-05-07 21:48 58.76394 14.64405 29177 ft 496 kts 47°
2026-05-07 21:48 58.80781 14.74682 29188 ft 497 kts 47°
2026-05-07 21:49 58.85166 14.85006 29193 ft 497 kts 47°
2026-05-07 21:49 58.88810 14.93604 29183 ft 497 kts 47°
2026-05-07 21:50 58.93184 15.03970 29185 ft 497 kts 47°
2026-05-07 21:50 58.97543 15.14370 29190 ft 497 kts 47°
2026-05-07 21:51 59.01900 15.24813 29179 ft 499 kts 47°
2026-05-07 21:51 59.06276 15.35318 29177 ft 501 kts 47°
2026-05-07 21:52 59.10645 15.45875 29178 ft 501 kts 47°
2026-05-07 21:52 59.15012 15.56443 29182 ft 500 kts 47°
2026-05-07 21:53 59.19355 15.67036 29119 ft 498 kts 47°
2026-05-07 21:53 59.21493 15.72278 28543 ft 487 kts 47°
2026-05-07 21:53 59.23558 15.77367 28230 ft 472 kts 47°
2026-05-07 21:54 59.25581 15.82360 27622 ft 465 kts 47°
2026-05-07 21:54 59.27579 15.87290 26973 ft 460 kts 47°
2026-05-07 21:54 59.29557 15.92166 26342 ft 456 kts 47°
2026-05-07 21:54 59.31518 15.97002 25715 ft 451 kts 47°
2026-05-07 21:55 59.33460 16.01800 25103 ft 447 kts 47°
2026-05-07 21:55 59.35383 16.06563 24512 ft 444 kts 47°
2026-05-07 21:55 59.37286 16.11294 23934 ft 440 kts 47°
2026-05-07 21:55 59.39167 16.15990 23286 ft 437 kts 47°
2026-05-07 21:56 59.41034 16.20660 22668 ft 432 kts 48°
2026-05-07 21:56 59.42883 16.25283 22089 ft 428 kts 48°
2026-05-07 21:56 59.44713 16.29871 21546 ft 425 kts 48°
2026-05-07 21:56 59.46526 16.34425 20986 ft 422 kts 48°
2026-05-07 21:57 59.48327 16.38955 20465 ft 419 kts 48°
2026-05-07 21:57 59.50113 16.43454 19980 ft 416 kts 48°
2026-05-07 21:57 59.51882 16.47923 19508 ft 412 kts 48°
2026-05-07 21:57 59.53636 16.52360 19034 ft 408 kts 48°
2026-05-07 21:58 59.55373 16.56764 18551 ft 405 kts 48°
2026-05-07 21:58 59.57071 16.61072 18007 ft 402 kts 48°
2026-05-07 21:58 59.58888 16.65189 17475 ft 393 kts 38°
2026-05-07 21:58 59.61051 16.68488 16923 ft 385 kts 31°
2026-05-07 21:59 59.63191 16.71517 16375 ft 382 kts 32°
2026-05-07 21:59 59.65370 16.74600 15823 ft 378 kts 32°
2026-05-07 21:59 59.67496 16.77616 15270 ft 374 kts 32°
2026-05-07 21:59 59.69601 16.80606 14758 ft 370 kts 32°
2026-05-07 22:00 59.71681 16.83570 14230 ft 367 kts 32°
2026-05-07 22:00 59.73740 16.86509 13670 ft 363 kts 32°
2026-05-07 22:00 59.75778 16.89423 13078 ft 359 kts 32°
2026-05-07 22:00 59.77794 16.92312 12552 ft 355 kts 33°
2026-05-07 22:01 59.79765 16.95158 12023 ft 351 kts 34°
2026-05-07 22:01 59.81471 16.98634 11448 ft 353 kts 52°
2026-05-07 22:01 59.82517 17.03027 10924 ft 354 kts 73°
2026-05-07 22:01 59.83040 17.07797 10386 ft 352 kts 77°
2026-05-07 22:02 59.83499 17.12514 10148 ft 340 kts 77°
2026-05-07 22:02 59.83925 17.16981 10016 ft 327 kts 77°
2026-05-07 22:02 59.84340 17.21350 9720 ft 320 kts 78°
2026-05-07 22:02 59.84751 17.25667 9315 ft 316 kts 78°
2026-05-07 22:03 59.85168 17.30003 8895 ft 314 kts 78°
2026-05-07 22:03 59.85579 17.34239 8495 ft 311 kts 78°
2026-05-07 22:03 59.85984 17.38384 8105 ft 308 kts 77°
2026-05-07 22:03 59.86388 17.42546 7724 ft 305 kts 78°
2026-05-07 22:04 59.86792 17.46672 7295 ft 304 kts 78°
2026-05-07 22:04 59.87201 17.50805 6818 ft 304 kts 78°
2026-05-07 22:04 59.87613 17.54917 6395 ft 302 kts 78°
2026-05-07 22:04 59.87964 17.59032 5951 ft 301 kts 85°
2026-05-07 22:05 59.88070 17.63166 5558 ft 298 kts 88°
2026-05-07 22:05 59.88136 17.67206 5418 ft 286 kts 88°
2026-05-07 22:05 59.88199 17.71047 5223 ft 269 kts 88°
2026-05-07 22:05 59.88264 17.74701 4739 ft 261 kts 88°
2026-05-07 22:06 59.88338 17.78308 4370 ft 260 kts 88°
2026-05-07 22:06 59.88287 17.81883 4063 ft 257 kts 96°
2026-05-07 22:06 59.88077 17.85412 3730 ft 256 kts 98°
2026-05-07 22:06 59.87852 17.88922 3412 ft 255 kts 98°
2026-05-07 22:07 59.87628 17.92419 3096 ft 254 kts 98°
2026-05-07 22:07 59.87285 17.95794 2987 ft 243 kts 115°
2026-05-07 22:07 59.86277 17.98276 2995 ft 225 kts 147°
2026-05-07 22:07 59.84872 17.99231 2990 ft 208 kts 182°
2026-05-07 22:08 59.83496 17.98593 3007 ft 204 kts 194°
2026-05-07 22:08 59.82112 17.98002 3002 ft 203 kts 190°
2026-05-07 22:08 59.80720 17.97497 2936 ft 203 kts 190°
2026-05-07 22:08 59.79344 17.96998 2717 ft 199 kts 190°
2026-05-07 22:09 59.77990 17.96505 2459 ft 197 kts 190°
2026-05-07 22:09 59.76645 17.96014 2192 ft 196 kts 190°
2026-05-07 22:09 59.75331 17.95536 1964 ft 188 kts 190°
2026-05-07 22:09 59.74081 17.95080 1682 ft 177 kts 190°
2026-05-07 22:10 59.72923 17.94659 1431 ft 161 kts 190°
2026-05-07 22:10 59.71873 17.94277 1225 ft 147 kts 190°
2026-05-07 22:10 59.70899 17.93923 1027 ft 139 kts 190°
2026-05-07 22:10 59.69956 17.93581 837 ft 137 kts 190°
2026-05-07 22:11 59.69019 17.93241 650 ft 137 kts 189°
2026-05-07 22:11 59.68080 17.92900 465 ft 137 kts 189°
2026-05-07 22:11 59.67139 17.92559 277 ft 137 kts 189°
2026-05-07 22:11 59.66209 17.92222 122 ft 130 kts 190°
2026-05-07 22:12 59.65474 17.91959 107 ft 83 kts 189°
2026-05-07 22:12 59.65069 17.91807 104 ft 43 kts 190°
2026-05-07 22:12 59.64789 17.91710 108 ft 39 kts 188°
2026-05-07 22:12 59.64546 17.91789 107 ft 33 kts 162°
2026-05-07 22:13 59.64499 17.91944 109 ft 13 kts 48°
2026-05-07 22:13 59.64594 17.91998 110 ft 16 kts 10°
2026-05-07 22:13 59.64705 17.92029 108 ft 13 kts 11°
2026-05-07 22:13 59.64800 17.92077 107 ft 15 kts 14°
2026-05-07 22:14 59.64897 17.92110 107 ft 12 kts
2026-05-07 22:14 59.64989 17.92139 105 ft 14 kts
2026-05-07 22:14 59.65091 17.92177 107 ft 16 kts 11°
2026-05-07 22:14 59.65206 17.92220 107 ft 17 kts 11°
2026-05-07 22:15 59.65332 17.92265 105 ft 20 kts 10°
2026-05-07 22:15 59.65452 17.92396 104 ft 19 kts 44°
2026-05-07 22:15 59.65508 17.92512 105 ft 12 kts 56°
2026-05-07 22:15 59.65537 17.92664 107 ft 12 kts 75°
2026-05-07 22:16 59.65557 17.92820 108 ft 12 kts 76°
2026-05-07 22:16 59.65575 17.92965 108 ft 11 kts 77°
2026-05-07 22:16 59.65579 17.93120 109 ft 12 kts 123°
2026-05-07 22:16 59.65508 17.93178 112 ft 11 kts 166°
2026-05-07 22:17 59.65440 17.93149 110 ft 8 kts 239°
2026-05-07 22:17 59.65433 17.93109 112 ft 3 kts 251°
2026-05-07 22:17 59.65423 17.93061 111 ft 4 kts 227°
2026-05-07 22:17 59.65398 17.93043 112 ft 1 kts 194°
2026-05-07 22:18 59.65387 17.93038 109 ft 2 kts 192°
2026-05-07 22:18 59.65385 17.93038 110 ft 0 kts 192°